Morganton, NC

8:18 PM EDT on May 26, 2017 (GMT -0400)
Morganton-Lenoir

Weather History for KMRN - May, 2013

Change the Weather History Date:

Tuesday, May 28, 2013

  Actual Average (KHKY) Record (KHKY)
Temperature  
Mean Temperature 68 °F -  
Max Temperature 82 °F 77 °F 93 °F (1967)
Min Temperature 53 °F 58 °F 40 °F (1961)
Cooling Degree Days 2    
Growing Degree Days 18 (Base 50)    
Moisture  
Dew Point 59 °F    
Average Humidity 75    
Maximum Humidity 100    
Minimum Humidity 43    
Precipitation  
Precipitation 0.00 in - - ()
Sea Level Pressure  
Sea Level Pressure 30.24 in    
Wind  
Wind Speed 2 mph (South)    
Max Wind Speed 10 mph    
Max Gust Speed 17 mph    
Visibility 9 miles    
Events      
Averages and records for this station are not official NWS values.
T = Trace of Precipitation, MM = Missing Value Source: NWS Daily Summary

Daily Weather History Graph

Daily Weather History Graph

Search for Another Location

Airport or City:

Trip Planner

Search our weather history database for the weather conditions in past years. The results will help you decide how hot, cold, wet, or windy it might be!

Date:

Astronomy

May. 28, 2013 Rise Set
Actual Time 6:12 AM EDT 8:34 PM EDT
Civil Twilight 5:43 AM EDT 9:04 PM EDT
Nautical Twilight 5:07 AM EDT 9:40 PM EDT
Astronomical Twilight 4:27 AM EDT 10:20 PM EDT
Moon No Moon Rise 9:56 AM EDT (5/28)
Length of Visible Light 15h 20m
Length of Day
14h 21m
Waning Gibbous, 83% of the Moon is Illuminated
May 28
Waning Gibbous
May 31
Last Quarter
Jun 8
New
Jun 16
First Quarter
Jun 23
Full

Hourly Weather History & Observations

Time (EDT) Temp. Heat Index Dew Point Humidity Pressure Visibility Wind Dir Wind Speed Gust Speed Precip Events Conditions
12:15 AM 60.3 °F - 59.2 °F 96% 30.25 in 10.0 mi Calm Calm - N/A   Scattered Clouds
12:35 AM 60.1 °F - 59.2 °F 97% 30.24 in 10.0 mi Calm Calm - N/A   Scattered Clouds
12:55 AM 58.8 °F - 57.7 °F 96% 30.24 in 10.0 mi Calm Calm - N/A   Scattered Clouds
1:15 AM 59.9 °F - 59.0 °F 97% 30.24 in 10.0 mi Calm Calm - N/A   Clear
1:35 AM 57.9 °F - 57.4 °F 98% 30.24 in 10.0 mi Calm Calm - N/A   Clear
1:55 AM 57.9 °F - 57.6 °F 99% 30.24 in 10.0 mi NNW 3.5 mph - N/A   Clear
2:15 AM 58.8 °F - 58.6 °F 99% 30.23 in 10.0 mi Calm Calm - N/A   Clear
2:35 AM 57.6 °F - 57.2 °F 99% 30.23 in 10.0 mi Calm Calm - N/A   Clear
2:55 AM 56.3 °F - 56.3 °F 100% 30.22 in 7.0 mi Calm Calm - N/A   Clear
3:15 AM 55.8 °F - 55.8 °F 100% 30.22 in 7.0 mi Calm Calm - N/A   Clear
3:35 AM 55.4 °F - 55.4 °F 100% 30.22 in 10.0 mi Calm Calm - N/A   Clear
3:55 AM 55.6 °F - 55.4 °F 99% 30.22 in 10.0 mi Calm Calm - N/A   Clear
4:15 AM 57.2 °F - 57.2 °F 100% 30.22 in 1.0 mi Calm Calm - N/A   Mostly Cloudy
4:35 AM 55.2 °F - 55.2 °F 100% 30.22 in 0.8 mi Calm Calm - N/A   Mist
4:55 AM 53.6 °F - 53.6 °F 100% 30.22 in 1.8 mi Calm Calm - N/A   Mist
5:15 AM 53.1 °F - 53.1 °F 100% 30.22 in 5.0 mi Calm Calm - N/A   Clear
5:35 AM 54.1 °F - 54.1 °F 100% 30.22 in 7.0 mi Calm Calm - N/A   Clear
5:55 AM 55.8 °F - 55.8 °F 100% 30.24 in 5.0 mi North 3.5 mph - N/A   Clear
6:15 AM 58.1 °F - 58.1 °F 100% 30.26 in 7.0 mi Calm Calm - N/A   Clear
6:35 AM 57.2 °F - 57.2 °F 100% 30.27 in 7.0 mi North 3.5 mph - N/A   Clear
6:55 AM 57.0 °F - 57.0 °F 100% 30.26 in 3.0 mi Calm Calm - N/A   Clear
7:15 AM 60.1 °F - 60.1 °F 100% 30.27 in 7.0 mi Calm Calm - N/A   Clear
7:35 AM 59.5 °F - 59.0 °F 98% 30.28 in 7.0 mi Calm Calm - N/A   Clear
7:55 AM 61.9 °F - 61.0 °F 97% 30.28 in 10.0 mi Calm Calm - N/A   Clear
8:15 AM 63.7 °F - 60.3 °F 89% 30.28 in 10.0 mi Calm Calm - N/A   Clear
8:35 AM 65.3 °F - 60.1 °F 83% 30.28 in 10.0 mi Calm Calm - N/A   Clear
8:55 AM 67.3 °F - 60.8 °F 80% 30.28 in 10.0 mi Calm Calm - N/A   Clear
9:15 AM 68.7 °F - 60.1 °F 74% 30.28 in 10.0 mi Calm Calm - N/A   Clear
9:35 AM 70.2 °F - 60.4 °F 71% 30.28 in 10.0 mi SW 3.5 mph - N/A   Clear
9:55 AM 71.8 °F - 60.8 °F 68% 30.29 in 10.0 mi West 3.5 mph - N/A   Clear
10:15 AM 72.0 °F - 60.8 °F 68% 30.28 in 10.0 mi Calm Calm - N/A   Clear
10:35 AM 73.6 °F - 60.4 °F 63% 30.28 in 10.0 mi Calm Calm - N/A   Clear
10:55 AM 73.8 °F - 61.2 °F 65% 30.28 in 10.0 mi Calm Calm - N/A   Clear
11:15 AM 74.5 °F - 60.6 °F 62% 30.28 in 10.0 mi Calm Calm - N/A   Clear
11:35 AM 75.9 °F - 60.8 °F 59% 30.28 in 10.0 mi SSE 3.5 mph - N/A   Clear
11:55 AM 76.1 °F - 61.2 °F 60% 30.28 in 10.0 mi South 4.6 mph - N/A   Clear
12:15 PM 77.4 °F - 60.6 °F 56% 30.28 in 10.0 mi SSW 3.5 mph - N/A   Clear
12:35 PM 79.3 °F - 59.7 °F 51% 30.28 in 10.0 mi SSW 4.6 mph - N/A   Clear
12:55 PM 79.9 °F - 60.3 °F 51% 30.27 in - South 3.5 mph - N/A   Clear
1:15 PM 80.8 °F 81.8 °F 61.9 °F 52% 30.26 in - SE 4.6 mph - N/A   Clear
1:35 PM 81.3 °F 81.8 °F 59.9 °F 48% 30.26 in - SSW 8.1 mph - N/A   Clear
1:55 PM 81.1 °F 81.6 °F 59.7 °F 48% 30.25 in - SSE 5.8 mph - N/A   Clear
2:15 PM 81.3 °F 81.6 °F 58.5 °F 46% 30.24 in - South 5.8 mph - N/A   Scattered Clouds
2:35 PM 82.8 °F 83.0 °F 59.9 °F 46% 30.24 in - South 8.1 mph - N/A   Mostly Cloudy
2:55 PM 82.4 °F 82.3 °F 58.5 °F 44% 30.23 in - South 6.9 mph - N/A   Mostly Cloudy
3:15 PM 81.0 °F 81.3 °F 58.8 °F 47% 30.23 in - South 9.2 mph - N/A   Scattered Clouds
3:35 PM 80.8 °F 81.3 °F 59.4 °F 48% 30.22 in 10.0 mi SSE 10.4 mph 17.3 mph N/A   Mostly Cloudy
3:55 PM 82.9 °F 82.7 °F 58.3 °F 43% 30.21 in 10.0 mi SSE 8.1 mph - N/A   Scattered Clouds
4:15 PM 82.6 °F 82.3 °F 58.3 °F 43% 30.22 in 10.0 mi South 8.1 mph 16.1 mph N/A   Scattered Clouds
4:35 PM 81.5 °F 81.6 °F 58.5 °F 45% 30.22 in 10.0 mi South 6.9 mph - N/A   Clear
4:55 PM 80.1 °F 80.8 °F 59.5 °F 49% 30.22 in 10.0 mi SSE 4.6 mph - N/A   Mostly Cloudy
5:15 PM 80.8 °F 81.3 °F 59.2 °F 48% 30.22 in 10.0 mi SSE 10.4 mph - N/A   Scattered Clouds
5:35 PM 80.4 °F 81.1 °F 59.7 °F 49% 30.22 in 10.0 mi South 6.9 mph - N/A   Mostly Cloudy
5:55 PM 79.9 °F - 58.8 °F 48% 30.21 in 10.0 mi South 5.8 mph - N/A   Scattered Clouds
6:15 PM 79.7 °F - 57.9 °F 47% 30.21 in 10.0 mi South 8.1 mph - N/A   Clear
6:35 PM 80.1 °F 80.8 °F 59.2 °F 49% 30.21 in 10.0 mi South 6.9 mph - N/A   Clear
6:55 PM 78.1 °F - 59.0 °F 52% 30.21 in 10.0 mi South 6.9 mph - N/A   Clear
7:15 PM 78.3 °F - 59.2 °F 52% 30.21 in 10.0 mi South 4.6 mph - N/A   Clear
7:35 PM 78.1 °F - 58.6 °F 51% 30.21 in 10.0 mi South 5.8 mph - N/A   Clear
7:55 PM 76.5 °F - 60.4 °F 58% 30.21 in 10.0 mi SSE 3.5 mph - N/A   Clear
8:15 PM 74.8 °F - 61.3 °F 63% 30.22 in 10.0 mi SSE 5.8 mph - N/A   Clear
8:35 PM 73.9 °F - 61.3 °F 65% 30.21 in 10.0 mi SSE 5.8 mph - N/A   Clear
8:55 PM 73.4 °F - 61.5 °F 66% 30.22 in 10.0 mi South 4.6 mph - N/A   Clear
9:15 PM 72.3 °F - 61.7 °F 69% 30.22 in 10.0 mi South 3.5 mph - N/A   Clear
9:35 PM 68.9 °F - 62.4 °F 80% 30.22 in 10.0 mi Calm Calm - N/A   Clear
9:55 PM 65.8 °F - 63.0 °F 90% 30.22 in 10.0 mi Calm Calm - N/A   Clear
10:15 PM 63.9 °F - 61.9 °F 93% 30.23 in 10.0 mi Calm Calm - N/A   Clear
10:35 PM 63.0 °F - 61.3 °F 94% 30.23 in 10.0 mi Calm Calm - N/A   Clear
10:55 PM 64.0 °F - 62.6 °F 95% 30.23 in 10.0 mi Calm Calm - N/A   Clear
11:15 PM 62.1 °F - 60.6 °F 95% 30.23 in 10.0 mi Calm Calm - N/A   Clear
11:35 PM 62.1 °F - 61.0 °F 96% 30.24 in 10.0 mi Calm Calm - N/A   Clear
11:55 PM 61.0 °F - 60.4 °F 98% 30.24 in 10.0 mi Calm Calm - N/A   Clear